Wetbulb
60.56 60.22 60.40 59.96 59.02 58.82 58.88 59.31 59.09 58.93 59.25 59.66 60.00 60.43 60.53 60.33 60.27 60.46 60.73 61.13 61.69 62.03 62.09 61.55 62.17 63.67 55.28 46.27 47.47 53.98 67.75 65.60 57.93 55.61 53.64 53.12 48.53 47.77 44.60 46.97 47.46 45.18 47.11 50.78 50.90 50.43 49.08
62.46 60.71 59.83 59.89 59.10 59.05 58.90 58.62 58.75 59.39 59.33 59.44 59.78 59.93 59.95 59.80 59.80 59.99 60.30 60.70 61.11 61.27 61.17 61.22 62.20 62.86 49.70 42.04 51.53 54.01 56.84 53.13 55.11 54.07 52.41 52.68 50.62 50.69 46.96 45.74 45.70 47.23 48.00 48.14 49.20 48.54 48.15
63.36 63.21 62.72 60.82 60.06 59.52 59.01 58.84 58.63 58.72 59.05 59.63 59.79 59.86 59.83 59.65 59.58 59.56 60.02 60.52 60.75 60.81 60.83 61.34 62.17 59.55 48.81 47.87 49.97 51.71 54.15 50.65 52.71 53.88 52.47 54.12 53.35 49.53 47.82 44.88 48.12 47.51 44.12 45.15 46.08 46.74 46.45
61.82 61.73 61.74 61.89 62.39 61.79 60.28 59.69 58.90 58.54 58.73 59.10 59.55 59.54 59.44 59.49 59.55 59.57 59.97 60.26 60.70 60.77 60.69 62.02 62.10 51.71 44.29 52.87 49.22 51.40 51.04 50.27 52.32 53.45 54.51 54.32 54.32 51.60 48.65 48.17 45.29 42.53 41.12 36.91 42.55 45.76 46.82
60.56 60.68 60.43 60.35 60.52 60.70 60.61 60.18 59.54 59.24 59.35 59.47 59.08 58.80 59.01 59.24 59.34 59.64 59.81 59.93 60.17 60.40 61.20 61.99 53.03 49.06 45.40 55.26 46.45 49.58 49.39 49.38 50.87 52.15 52.70 55.46 52.81 47.96 47.02 41.28 38.06 37.60 33.11 35.53 39.67 45.03 44.80
58.98 58.65 58.58 58.38 58.34 58.52 58.63 58.65 58.56 58.40 58.13 58.38 58.31 58.72 58.54 58.25 58.99 59.17 58.66 58.42 58.66 58.52 58.43 58.21 56.15 43.65 46.71 45.03 48.11 49.25 48.15 51.15 50.07 50.36 50.09 48.24 45.19 41.47 39.58 37.87 32.83 33.74 33.68 35.43 35.62 41.00 42.51
56.86 56.66 56.65 56.89 57.10 57.19 57.46 57.55 57.52 57.44 57.22 57.38 57.73 57.89 57.70 58.94 58.14 58.20 53.31 51.48 47.74 47.20 47.99 43.45 45.28 43.03 46.03 48.12 49.42 46.73 49.80 49.29 49.50 47.20 40.42 43.61 38.80 36.65 39.31 40.73 38.59 37.50 35.90 35.35 38.38 43.03 42.09
56.57 56.53 56.35 56.09 56.19 56.28 56.64 56.74 56.82 56.87 56.80 56.72 56.84 56.81 57.48 57.74 58.32 57.33 52.89 50.16 48.14 48.53 43.11 49.10 48.57 49.29 50.85 47.90 43.72 45.10 49.97 44.08 44.11 40.09 41.93 39.85 36.15 41.29 42.92 42.75 41.29 39.22 36.55 36.13 39.33 42.59 41.89
56.20 56.17 56.04 56.17 56.36 56.26 56.18 56.24 56.33 56.37 56.33 56.28 56.36 56.37 56.78 57.48 57.64 51.63 48.02 49.96 53.30 51.29 41.47 44.74 48.92 47.85 48.37 49.35 44.30 43.84 48.04 44.63 42.03 40.00 40.27 36.94 40.86 45.29 43.10 40.78 39.65 39.57 37.92 36.72 37.42 41.14 40.90
55.90 56.28 56.44 56.33 56.19 56.28 56.22 56.25 56.22 56.28 56.20 56.11 55.96 56.00 56.22 56.53 51.56 48.04 49.51 53.45 52.84 49.98 36.67 41.40 45.36 47.21 47.79 48.14 44.27 49.03 48.36 46.27 42.15 39.67 39.79 39.35 44.56 43.29 41.15 40.44 41.10 36.77 42.10 41.97 40.59 36.95 34.23
55.96 56.21 56.48 56.26 56.09 56.12 56.07 56.27 56.38 56.58 56.71 56.37 56.20 56.00 55.87 55.24 44.04 49.04 52.08 53.87 50.73 47.76 28.90 43.25 44.43 49.75 46.79 44.80 44.62 46.38 48.80 46.76 41.21 41.67 41.00 39.26 40.95 40.90 40.16 41.51 42.62 39.47 43.64 41.51 40.56 36.21 33.33
56.84 56.92 56.40 55.95 55.91 56.02 56.14 56.55 56.54 56.56 56.38 56.09 55.80 55.59 55.79 51.52 48.65 50.64 54.57 50.96 48.44 36.42 29.40 40.89 44.07 42.71 41.76 43.20 43.50 47.21 45.64 47.09 46.08 42.28 41.11 41.29 44.51 43.38 42.77 44.32 44.35 43.98 40.53 39.22 36.88 33.75 29.22
56.44 56.49 56.03 55.65 55.62 55.67 56.05 56.16 56.05 55.99 56.04 55.63 55.25 54.98 53.90 55.29 48.90 50.80 52.17 46.00 35.95 30.63 42.49 39.77 41.52 43.34 40.01 39.52 40.78 42.49 41.19 39.08 36.60 32.92 32.27 36.82 39.35 42.60 44.57 40.43 42.36 40.87 35.80 28.84 27.28 26.58 30.52
55.97 55.86 55.76 55.41 55.31 55.46 56.11 56.47 56.51 55.67 55.65 55.22 54.47 55.34 56.00 56.09 53.08 51.42 46.67 40.46 28.65 38.04 39.46 45.60 44.65 43.76 38.80 40.34 39.88 40.52 38.98 36.61 40.30 36.75 33.14 32.08 32.91 39.09 42.31 41.41 38.72 38.29 38.23 32.27 24.60 25.46 31.87
55.65 55.36 55.04 54.83 54.54 54.66 55.67 56.25 56.34 56.32 55.34 54.29 53.33 50.86 51.35 54.61 53.54 49.98 42.45 33.02 32.98 38.68 42.46 41.63 42.31 37.94 37.11 40.87 41.39 40.39 36.49 37.28 39.50 38.92 33.87 32.76 32.70 41.83 43.18 43.55 42.56 37.17 33.69 40.71 33.36 36.65 27.21
54.71 54.56 54.36 54.22 54.18 54.67 55.35 55.75 56.09 56.00 54.98 53.45 49.41 49.22 50.33 54.02 49.39 46.74 38.85 36.79 37.85 43.36 43.77 42.70 36.41 39.32 34.72 38.09 38.17 38.18 37.40 41.03 42.67 45.25 44.83 37.54 32.73 40.68 42.61 42.44 41.68 39.76 40.46 32.51 30.29 26.23 26.18
54.11 54.25 54.48 54.22 54.78 55.13 55.17 55.50 55.67 55.53 54.58 52.10 45.15 45.35 51.22 51.19 48.53 42.72 34.49 35.33 41.15 45.32 42.79 40.87 38.16 38.39 38.43 36.58 37.70 36.98 38.53 42.68 45.70 44.81 45.13 42.37 36.98 38.02 40.13 38.16 38.89 39.13 35.34 35.35 34.78 32.49 29.47
53.63 53.70 53.56 54.06 54.49 54.90 54.63 54.81 55.28 54.80 53.53 47.70 40.31 39.43 47.52 48.48 40.34 36.54 35.96 39.11 44.24 41.05 40.27 39.58 40.02 41.11 38.24 36.46 36.28 38.09 38.44 40.92 42.62 44.03 40.11 43.63 40.98 35.44 37.84 43.90 45.41 42.86 38.66 36.44 32.87 31.52 31.52
53.60 53.62 53.73 53.42 53.71 54.20 54.40 54.84 54.91 53.97 52.67 44.37 37.42 36.91 43.57 45.25 32.98 32.91 34.23 35.79 38.74 36.58 36.46 37.46 36.59 38.24 36.68 35.62 30.49 37.41 34.31 42.00 40.98 38.70 38.82 41.66 37.53 29.68 31.25 36.50 37.41 34.80 35.93 36.45 34.66 33.96 30.97
52.95 53.01 53.30 53.12 53.41 53.76 54.01 54.43 54.30 53.91 53.16 43.40 36.48 31.03 35.25 36.60 34.26 30.87 30.03 30.79 33.21 37.50 36.44 36.83 35.35 36.87 34.02 31.79 34.68 31.58 32.41 37.96 39.59 39.08 44.16 42.51 36.60 32.82 27.69 32.19 35.39 32.42 34.97 35.93 33.81 27.87 27.67
52.86 52.85 52.82 53.09 52.95 53.74 53.97 54.19 54.30 53.78 52.58 41.59 36.56 33.70 34.77 28.14 29.68 30.55 30.50 30.85 30.51 31.14 36.02 35.77 33.23 33.92 31.87 28.49 30.02 29.60 33.08 34.52 37.62 40.59 39.52 37.36 29.54 31.34 32.05 33.04 33.30 32.33 33.58 34.08 31.25 31.58 27.59
52.37 52.43 52.77 52.97 52.83 53.19 53.73 53.71 54.04 53.40 50.62 40.50 35.12 33.85 35.68 31.67 32.27 29.57 30.51 27.26 30.76 33.52 33.50 32.26 31.14 34.19 33.39 29.65 30.98 29.49 32.16 32.24 31.67 35.21 34.13 35.11 28.97 30.84 27.57 31.13 31.12 29.16 31.77 32.52 32.78 32.65 32.16
52.07 52.16 52.32 52.46 52.34 52.25 52.99 52.79 53.18 52.91 48.28 39.59 39.67 39.42 35.56 32.44 29.81 27.72 28.57 31.19 33.52 33.35 34.47 36.02 34.78 33.33 32.10 33.57 35.99 36.00 36.63 35.99 35.17 33.08 31.81 30.74 28.39 25.75 23.14 28.67 28.29 24.55 28.75 30.25 31.81 33.94 33.95
51.56 51.71 51.86 52.04 51.85 51.90 51.79 52.08 52.70 52.90 49.32 42.50 41.05 39.17 33.42 28.09 31.78 31.74 34.22 34.86 33.06 33.20 31.70 35.48 36.18 32.87 36.21 40.04 38.39 37.26 34.92 34.76 34.89 34.41 35.07 29.76 28.55 28.78 25.03 27.00 18.87 29.20 35.25 35.35 33.70 35.55 37.86
51.33 51.37 51.58 51.67 51.72 51.59 51.40 51.43 51.42 52.30 51.25 44.19 42.84 39.59 34.57 28.14 32.20 32.25 32.84 32.63 33.11 34.18 33.31 34.25 36.22 37.43 39.67 35.60 31.26 27.79 27.14 26.78 29.25 32.17 31.88 32.45 28.87 26.17 20.27 21.23 26.40 29.44 33.42 32.87 31.91 32.57 38.96
51.10 51.10 51.24 51.33 51.25 51.53 51.85 51.69 51.31 51.68 51.53 43.76 42.20 43.02 40.98 36.00 30.11 34.83 33.35 33.41 31.27 31.21 32.85 34.37 37.98 38.78 36.07 34.45 32.52 24.01 21.40 24.09 23.49 27.10 31.77 32.13 31.80 26.00 23.94 20.18 17.24 28.27 33.97 37.05 36.05 26.69 37.76
50.58 50.62 50.85 50.93 50.81 50.80 50.49 50.40 50.93 51.85 51.62 45.34 42.59 43.65 42.68 36.41 35.82 35.18 32.90 31.09 35.18 34.27 31.94 33.95 33.94 33.41 34.62 28.67 25.66 23.83 23.15 28.32 24.18 23.18 24.14 24.29 24.36 22.57 21.47 18.46 24.50 31.84 35.66 37.77 24.87 26.41 36.13
50.24 50.16 50.23 50.42 50.48 50.55 50.34 50.03 50.67 51.17 51.66 45.49 42.32 44.72 41.35 36.72 36.02 37.60 37.87 34.20 34.11 34.00 31.13 32.43 31.96 31.18 30.35 23.35 24.43 23.00 26.63 26.21 25.29 25.62 25.90 22.83 18.79 20.38 19.86 16.74 16.87 36.00 35.26 29.78 34.19 37.99 38.59
50.07 50.06 49.79 50.44 50.26 50.42 50.53 50.55 50.77 51.18 51.60 50.27 43.83 44.13 44.86 41.31 37.37 40.76 41.07 41.55 40.04 39.77 36.09 36.49 34.18 33.81 34.95 31.22 29.06 28.68 24.22 28.66 26.83 21.64 28.61 23.26 27.91 25.14 25.26 25.88 33.36 36.65 35.91 38.14 38.47 37.36 37.09
MSLP
1020.21 1019.98 1019.74 1019.52 1019.32 1019.20 1019.12 1019.00 1018.84 1018.65 1018.46 1018.28 1018.17 1018.05 1017.97 1017.90 1017.71 1017.64 1017.49 1017.35 1017.23 1017.04 1016.95 1016.76 1016.54 1016.38 1016.14 1015.86 1014.41 1013.11 1013.24 1013.47 1013.59 1013.72 1013.70 1013.69 1013.74 1013.90 1014.09 1013.93 1013.81 1013.71 1013.34 1012.98 1012.65 1012.58 1012.57
1020.48 1020.21 1020.03 1019.75 1019.51 1019.36 1019.20 1019.12 1019.01 1018.82 1018.59 1018.32 1018.10 1017.96 1017.81 1017.68 1017.61 1017.48 1017.33 1017.17 1017.01 1016.88 1016.82 1016.65 1016.47 1016.31 1016.22 1015.43 1013.34 1013.18 1013.42 1013.62 1013.66 1013.69 1013.71 1013.75 1013.80 1013.92 1014.09 1013.97 1013.85 1013.29 1013.18 1013.02 1012.92 1012.86 1012.83
1020.84 1020.51 1020.22 1020.03 1019.92 1019.68 1019.47 1019.29 1019.14 1018.94 1018.72 1018.49 1018.26 1018.02 1017.81 1017.61 1017.39 1017.21 1017.02 1016.86 1016.69 1016.61 1016.56 1016.47 1016.43 1016.30 1016.11 1014.65 1013.40 1013.38 1013.59 1013.61 1013.53 1013.63 1013.76 1013.76 1013.72 1013.96 1014.18 1013.92 1013.47 1013.46 1013.70 1013.52 1013.24 1013.23 1013.19
1021.45 1021.18 1020.83 1020.43 1020.06 1019.82 1019.62 1019.45 1019.26 1019.05 1018.78 1018.52 1018.25 1018.00 1017.75 1017.56 1017.38 1017.16 1016.89 1016.63 1016.38 1016.20 1016.17 1016.16 1016.22 1016.24 1015.39 1013.79 1013.67 1013.66 1013.71 1013.69 1013.56 1013.66 1013.79 1013.76 1013.79 1013.99 1014.29 1014.14 1014.10 1014.21 1014.42 1014.60 1013.47 1013.35 1013.14
1022.12 1021.81 1021.48 1021.16 1020.77 1020.34 1019.97 1019.64 1019.33 1019.05 1018.79 1018.48 1018.23 1017.99 1017.78 1017.58 1017.39 1017.12 1016.77 1016.41 1016.08 1015.91 1016.02 1016.06 1016.22 1016.09 1015.01 1013.65 1013.63 1013.44 1013.68 1013.87 1013.75 1013.80 1013.79 1013.86 1013.96 1014.53 1014.68 1015.08 1015.67 1015.54 1015.20 1015.02 1014.27 1013.29 1013.36
1022.68 1022.35 1022.03 1021.67 1021.32 1020.95 1020.58 1020.23 1019.89 1019.55 1019.21 1018.86 1018.53 1018.21 1017.89 1017.58 1017.24 1016.87 1016.34 1015.95 1015.75 1015.76 1015.94 1015.92 1016.05 1016.28 1014.65 1013.80 1013.50 1013.44 1013.55 1013.78 1013.95 1014.08 1014.37 1014.45 1015.05 1015.48 1015.83 1015.97 1015.92 1015.66 1015.75 1015.14 1014.48 1013.39 1013.60
1023.08 1022.76 1022.40 1022.05 1021.68 1021.32 1020.91 1020.51 1020.14 1019.79 1019.43 1019.03 1018.61 1018.19 1017.77 1017.34 1017.04 1016.73 1016.13 1015.76 1016.19 1016.18 1015.97 1015.48 1015.36 1014.97 1014.17 1013.79 1013.44 1013.49 1013.51 1013.83 1014.16 1014.66 1015.26 1015.39 1016.04 1015.67 1015.24 1015.31 1015.31 1015.27 1015.37 1014.96 1013.92 1013.08 1013.23
1023.42 1023.16 1022.79 1022.37 1021.91 1021.52 1021.10 1020.64 1020.22 1019.77 1019.32 1018.88 1018.45 1018.03 1017.62 1017.28 1016.96 1016.72 1016.84 1016.36 1016.11 1016.24 1015.85 1014.92 1014.85 1014.85 1014.33 1013.95 1013.87 1013.74 1013.77 1014.30 1014.71 1015.39 1015.81 1016.34 1016.03 1015.23 1015.50 1015.71 1015.78 1015.57 1015.29 1014.62 1013.59 1013.00 1013.39
1023.69 1023.42 1023.10 1022.72 1022.26 1021.80 1021.33 1020.84 1020.36 1019.83 1019.36 1018.92 1018.48 1018.04 1017.57 1017.16 1016.82 1016.71 1016.53 1016.16 1015.93 1016.04 1016.22 1014.71 1014.23 1013.89 1013.50 1013.77 1014.05 1013.75 1014.05 1014.50 1014.97 1015.43 1015.80 1016.10 1014.96 1014.69 1015.14 1015.39 1015.64 1015.12 1015.03 1014.66 1014.01 1013.28 1012.71
1024.00 1023.64 1023.28 1022.90 1022.52 1022.12 1021.69 1021.18 1020.63 1020.05 1019.51 1019.02 1018.53 1018.04 1017.55 1016.97 1016.99 1016.97 1016.64 1016.25 1016.12 1016.20 1016.26 1014.72 1013.99 1013.30 1013.27 1013.25 1013.65 1013.30 1013.35 1014.13 1015.01 1015.34 1015.86 1015.89 1014.35 1014.44 1014.56 1014.55 1014.44 1014.06 1013.94 1014.09 1014.21 1014.44 1013.43
1024.35 1023.96 1023.63 1023.27 1022.83 1022.36 1021.91 1021.42 1020.86 1020.22 1019.59 1019.06 1018.48 1018.00 1017.63 1017.19 1017.38 1017.05 1017.02 1016.35 1016.25 1016.46 1016.29 1014.57 1013.63 1013.01 1013.20 1013.66 1013.79 1013.57 1013.46 1013.80 1014.29 1014.81 1015.39 1014.69 1014.15 1014.03 1013.99 1013.24 1013.44 1013.00 1012.93 1013.09 1013.39 1013.74 1013.76
1024.63 1024.26 1023.93 1023.55 1023.07 1022.54 1021.99 1021.40 1020.79 1020.14 1019.42 1018.75 1018.17 1017.84 1017.59 1017.44 1017.48 1017.02 1016.53 1016.31 1016.63 1016.91 1015.45 1014.42 1013.90 1013.80 1014.03 1014.00 1013.99 1013.80 1013.82 1013.92 1014.21 1014.74 1014.67 1014.15 1013.38 1013.10 1012.31 1012.02 1012.37 1012.53 1012.95 1013.23 1013.70 1014.01 1013.38
1024.95 1024.59 1024.25 1023.84 1023.36 1022.77 1022.14 1021.52 1020.83 1019.97 1019.07 1018.33 1017.81 1017.37 1017.32 1017.23 1017.33 1016.70 1016.50 1016.92 1017.38 1017.05 1015.51 1015.47 1015.04 1014.85 1014.87 1014.70 1014.53 1014.38 1014.60 1014.81 1015.16 1015.42 1015.22 1014.06 1012.89 1011.79 1011.54 1011.75 1011.85 1012.33 1013.15 1013.58 1013.66 1013.92 1011.41
1025.26 1024.84 1024.43 1023.95 1023.34 1022.69 1022.02 1021.39 1020.79 1020.08 1018.99 1018.03 1017.40 1017.00 1017.23 1017.07 1016.86 1016.70 1016.75 1017.52 1018.02 1017.49 1016.97 1016.49 1016.24 1015.46 1015.61 1015.34 1015.25 1015.27 1015.47 1015.69 1015.30 1015.72 1015.72 1014.81 1012.17 1011.46 1010.58 1010.83 1010.46 1010.88 1011.93 1012.17 1012.26 1012.09 1010.44
1025.63 1025.28 1024.88 1024.37 1023.80 1023.15 1022.40 1021.62 1020.83 1020.02 1019.00 1017.92 1017.31 1017.47 1017.57 1017.19 1016.77 1016.80 1017.41 1018.48 1018.76 1018.74 1018.69 1017.80 1016.83 1016.58 1016.46 1016.40 1016.68 1016.29 1016.43 1016.37 1016.10 1016.33 1016.68 1015.14 1013.00 1011.64 1011.06 1010.70 1010.76 1010.76 1010.92 1010.82 1011.50 1010.36 1010.76
1026.04 1025.67 1025.27 1024.84 1024.30 1023.65 1022.83 1021.83 1020.79 1019.92 1019.12 1018.28 1018.21 1018.24 1018.21 1017.50 1017.12 1017.47 1018.75 1019.62 1019.52 1019.51 1019.06 1018.54 1018.40 1018.16 1018.26 1018.10 1018.05 1017.81 1017.39 1016.71 1017.06 1017.30 1017.26 1016.45 1013.91 1012.22 1011.21 1010.66 1010.37 1010.61 1010.58 1011.35 1011.98 1011.45 1009.82
1026.45 1026.08 1025.71 1025.35 1024.88 1024.20 1023.41 1022.50 1021.47 1020.33 1019.43 1018.58 1018.81 1019.10 1018.28 1017.61 1017.52 1018.84 1020.66 1020.81 1020.20 1019.72 1019.46 1019.30 1019.14 1019.25 1019.29 1019.68 1019.54 1019.23 1018.30 1017.74 1017.84 1017.94 1017.74 1017.57 1016.26 1012.67 1012.47 1012.03 1011.50 1011.14 1010.93 1011.28 1011.43 1011.12 1009.55
1026.69 1026.33 1026.01 1025.71 1025.39 1024.89 1024.19 1023.36 1022.46 1021.30 1019.84 1019.27 1020.27 1020.52 1019.14 1018.22 1019.62 1021.34 1022.13 1021.85 1021.15 1020.60 1020.29 1020.03 1019.85 1020.10 1020.49 1020.62 1020.31 1019.91 1019.09 1018.68 1019.16 1019.16 1019.00 1018.85 1017.56 1014.88 1013.20 1012.40 1011.59 1011.33 1011.56 1012.30 1012.95 1011.80 1010.25
1026.93 1026.60 1026.29 1026.06 1025.74 1025.21 1024.58 1023.78 1022.83 1022.14 1021.49 1021.53 1022.27 1021.98 1020.31 1019.84 1022.38 1023.81 1023.57 1022.91 1022.18 1021.83 1021.53 1021.32 1021.24 1021.31 1021.70 1021.81 1021.69 1020.59 1020.16 1019.68 1019.67 1019.77 1019.21 1019.11 1017.90 1016.83 1013.71 1012.72 1013.37 1013.43 1013.55 1014.54 1015.19 1014.07 1012.28
1027.27 1026.94 1026.63 1026.33 1026.02 1025.58 1025.02 1024.36 1023.51 1022.50 1021.89 1022.11 1023.23 1023.68 1023.42 1023.61 1025.06 1025.28 1025.18 1024.34 1023.40 1022.69 1022.58 1022.62 1022.43 1022.38 1022.74 1022.79 1022.74 1021.84 1021.52 1020.84 1020.58 1020.29 1019.58 1019.27 1018.49 1018.50 1017.17 1015.85 1015.94 1014.98 1014.10 1014.03 1015.04 1014.16 1013.07
1027.53 1027.28 1026.97 1026.59 1026.25 1025.86 1025.47 1024.96 1024.18 1023.20 1022.31 1022.64 1024.58 1026.30 1026.52 1026.67 1026.66 1026.57 1026.07 1025.27 1024.54 1023.99 1023.50 1023.35 1023.32 1023.59 1023.96 1023.67 1023.22 1022.62 1022.32 1021.66 1021.00 1020.44 1019.93 1020.06 1019.23 1019.07 1017.78 1016.85 1016.16 1015.36 1014.52 1014.17 1013.27 1012.71 1012.51
1027.76 1027.45 1027.14 1026.79 1026.50 1026.20 1025.84 1025.47 1024.99 1024.09 1023.24 1024.35 1026.28 1026.98 1027.13 1027.39 1027.24 1026.92 1026.61 1025.86 1025.20 1024.86 1024.92 1024.60 1024.47 1024.42 1024.60 1024.44 1024.21 1022.77 1022.88 1022.57 1021.66 1020.65 1020.32 1020.10 1019.26 1018.93 1017.64 1016.82 1016.03 1014.64 1013.80 1013.06 1012.22 1010.90 1010.52
1027.78 1027.53 1027.25 1026.98 1026.78 1026.61 1026.30 1025.90 1025.55 1025.02 1024.46 1026.10 1027.05 1027.16 1027.46 1028.00 1027.87 1027.73 1027.06 1026.17 1025.47 1025.64 1025.28 1024.87 1024.99 1024.91 1024.71 1024.04 1023.62 1023.36 1022.74 1022.04 1021.29 1020.79 1020.12 1020.05 1019.41 1019.24 1017.67 1016.25 1015.51 1014.17 1011.79 1011.09 1010.59 1009.80 1009.83
1027.79 1027.58 1027.35 1027.12 1026.94 1026.83 1026.67 1026.39 1026.09 1025.95 1026.01 1026.78 1027.41 1027.63 1028.20 1028.33 1028.04 1027.50 1026.69 1026.36 1026.13 1026.04 1026.02 1025.40 1025.04 1024.90 1023.89 1023.41 1023.08 1022.43 1021.92 1021.11 1020.40 1019.45 1018.87 1019.39 1018.96 1019.08 1017.52 1016.19 1014.80 1012.42 1011.07 1010.94 1010.09 1009.33 1008.89
1027.67 1027.50 1027.32 1027.17 1026.99 1026.91 1026.89 1026.78 1026.64 1026.40 1026.50 1026.91 1027.34 1027.73 1028.14 1028.26 1027.80 1027.18 1026.64 1026.37 1026.22 1026.09 1025.88 1025.35 1024.60 1024.03 1023.70 1023.81 1023.23 1022.28 1021.44 1020.66 1019.55 1018.54 1017.98 1018.39 1019.15 1018.93 1017.80 1016.70 1014.41 1012.13 1011.04 1011.02 1010.12 1009.11 1009.43
1027.47 1027.36 1027.22 1027.02 1026.90 1026.84 1026.78 1026.76 1026.71 1026.58 1026.51 1027.14 1027.48 1027.52 1027.79 1027.78 1026.95 1026.54 1026.45 1026.32 1026.37 1026.02 1025.53 1024.73 1023.92 1023.65 1023.73 1023.67 1023.83 1023.19 1022.30 1021.89 1020.45 1018.72 1017.90 1018.40 1018.52 1019.10 1018.02 1016.97 1014.71 1011.46 1010.97 1010.71 1009.89 1009.33 1009.57
1027.24 1027.15 1027.05 1026.88 1026.81 1026.68 1026.57 1026.62 1026.60 1026.47 1026.41 1027.01 1027.40 1027.28 1027.34 1027.34 1026.12 1026.01 1026.05 1026.02 1025.89 1025.73 1025.30 1024.58 1024.02 1023.60 1023.66 1023.65 1023.57 1022.93 1022.03 1021.17 1020.35 1019.45 1018.64 1018.59 1018.68 1018.50 1017.64 1016.54 1014.31 1011.20 1010.78 1010.36 1010.29 1010.48 1008.64
1026.86 1026.73 1026.68 1026.59 1026.49 1026.51 1026.38 1026.36 1026.36 1026.33 1026.24 1026.73 1027.06 1027.10 1027.30 1026.89 1025.58 1025.23 1025.13 1025.42 1025.30 1025.27 1025.05 1024.27 1024.37 1022.99 1023.28 1023.52 1023.10 1022.58 1021.87 1021.06 1020.32 1019.15 1018.88 1018.69 1019.02 1017.88 1016.97 1015.77 1013.19 1011.16 1010.73 1010.83 1010.10 1009.46 1008.76
1026.49 1026.39 1026.22 1026.20 1026.00 1026.06 1025.98 1026.10 1026.18 1026.05 1025.95 1026.09 1026.66 1026.61 1026.71 1026.62 1025.20 1024.37 1024.23 1024.06 1023.97 1023.57 1024.27 1024.47 1023.66 1023.08 1023.21 1022.79 1022.57 1022.17 1021.60 1021.07 1020.32 1018.54 1018.06 1017.71 1017.37 1016.56 1016.17 1013.97 1012.04 1010.43 1010.78 1010.00 1009.89 1009.12 1008.54
Wind_Speed
16 15 12 11 9 8 7 6 5 4 4 4 5 6 6 6 7 7 7 8 8 8 8 8 9 9 2 2 8 2 5 2 1 1 0 2 1 2 3 3 1 3 3 3 3 4 3
15 18 17 16 13 11 9 8 8 8 6 5 4 3 4 5 5 6 7 8 8 8 8 8 7 7 2 3 2 5 4 1 2 1 1 2 2 3 3 4 4 3 5 4 5 4 4
21 19 16 16 16 15 14 12 10 9 9 9 8 8 7 7 7 7 8 8 8 7 7 7 5 1 0 12 4 4 4 2 1 2 1 1 0 1 1 4 4 1 3 4 5 3 5
22 22 22 22 20 17 16 15 14 13 11 10 10 10 10 10 11 11 11 11 10 8 4 3 2 2 7 4 2 1 2 4 2 1 1 3 1 1 2 5 7 0 2 2 4 6 6
21 21 21 21 21 21 20 18 17 16 15 14 13 12 12 12 12 12 13 14 12 7 4 3 2 4 9 6 1 5 4 2 1 2 2 2 2 1 1 4 5 4 5 7 9 10 4
19 19 19 19 19 19 18 18 17 16 16 15 14 13 12 11 11 12 16 9 4 3 3 2 1 4 4 3 3 2 3 1 0 1 5 2 5 0 2 4 9 7 6 5 7 3 3
19 19 20 20 20 20 19 18 17 16 15 15 14 13 14 13 11 11 9 3 6 3 2 7 4 3 2 3 1 1 3 3 2 5 2 2 3 12 14 11 3 4 5 6 5 6 8
19 19 20 20 20 21 21 21 20 20 19 19 18 17 16 15 13 8 1 4 3 4 7 5 6 6 4 2 3 2 3 4 3 5 2 3 9 9 4 6 6 5 6 9 9 8 8
19 20 20 20 21 21 22 22 22 22 21 21 20 19 17 16 12 1 1 1 3 4 1 7 4 4 5 9 4 4 8 3 4 6 7 8 9 2 6 7 6 12 14 8 13 7 5
19 19 20 21 21 21 21 21 22 22 22 22 20 18 18 20 3 3 1 4 3 3 5 4 1 2 2 4 3 4 8 8 2 6 5 7 12 16 6 6 12 16 8 13 12 2 10
18 19 20 21 21 21 21 21 21 21 21 19 19 16 14 7 1 2 4 4 1 4 4 0 1 1 1 5 3 1 4 2 6 4 5 10 4 5 7 16 6 8 7 9 8 6 2
18 19 20 21 21 22 22 21 21 21 22 22 19 14 10 1 1 4 6 3 4 7 4 2 2 3 2 2 3 2 1 1 1 4 5 15 4 5 9 4 9 3 3 2 3 4 8
19 19 20 21 22 22 22 22 23 25 25 23 17 13 1 1 0 5 2 4 6 4 5 4 5 4 1 3 3 3 3 3 4 4 5 5 7 6 10 13 3 5 6 5 5 2 17
20 21 22 23 24 25 25 24 24 26 28 24 19 4 1 1 4 5 3 6 1 4 5 5 6 4 4 3 3 3 1 3 6 4 3 6 13 7 4 14 13 12 14 11 7 8 15
20 21 22 23 24 25 25 25 26 27 29 24 8 3 4 7 4 3 6 4 1 5 7 8 8 4 3 2 6 8 2 5 4 3 5 7 8 7 3 5 8 5 8 15 11 21 5
18 20 21 23 24 25 26 28 30 30 30 21 3 3 3 10 4 5 6 1 3 3 5 3 2 4 5 7 7 9 2 3 6 7 5 6 18 7 7 3 3 6 4 3 2 9 22
17 18 19 21 22 23 25 27 29 31 31 16 5 5 4 10 4 7 4 1 3 3 8 6 3 5 2 4 3 3 7 4 8 11 5 5 6 11 5 4 13 10 6 5 4 8 18
16 17 18 20 20 20 22 25 27 29 31 10 3 4 5 6 6 2 3 5 5 6 6 5 3 2 2 5 5 6 7 2 7 9 7 7 8 18 25 20 16 17 9 3 5 15 7
15 16 18 18 19 20 21 24 26 24 19 2 4 2 5 4 5 4 6 5 3 5 4 5 4 6 5 3 6 4 7 7 8 11 4 3 2 10 18 8 8 7 12 15 15 8 14
14 15 17 17 17 17 19 22 25 26 22 4 4 4 6 7 3 5 3 4 6 3 2 3 4 4 5 1 4 7 11 6 11 12 20 14 7 13 17 19 16 26 26 21 14 8 14
13 13 14 15 16 17 17 20 24 26 23 5 5 1 2 4 5 3 2 2 3 4 5 4 5 4 3 4 11 8 14 16 6 18 6 4 14 15 20 23 24 26 26 21 25 20 17
10 11 13 14 16 17 17 18 20 24 15 7 4 3 4 2 3 4 2 3 3 0 2 5 5 6 7 6 11 20 11 9 9 9 10 4 17 20 24 24 24 27 26 27 24 30 25
9 10 11 13 13 15 15 16 18 18 11 4 2 2 4 3 2 2 3 4 4 5 7 6 7 11 12 17 9 11 14 15 16 17 20 13 8 8 20 25 20 16 26 24 23 27 20
8 9 10 11 11 12 13 14 15 14 8 3 0 2 4 3 1 4 4 4 10 11 9 11 11 7 7 11 10 11 10 15 17 20 18 12 15 5 10 16 15 9 15 14 16 18 13
7 8 9 9 10 10 10 11 11 10 8 3 1 3 3 2 4 9 12 10 6 7 11 11 17 12 7 5 8 8 6 5 7 11 10 12 3 6 5 10 18 18 6 10 14 12 13
7 8 8 9 9 9 7 9 10 7 7 4 1 2 2 2 5 6 4 2 5 9 11 7 8 10 5 4 3 7 8 15 6 9 1 2 5 3 10 11 11 14 12 9 8 9 10
7 8 8 8 9 8 9 10 10 7 6 4 1 2 1 3 5 5 6 3 3 8 9 12 9 4 1 4 7 7 8 6 5 7 11 5 4 8 8 6 11 13 4 1 5 9 14
7 7 8 9 9 9 10 10 9 9 9 3 3 5 3 4 9 10 12 12 7 5 9 8 8 2 1 2 3 4 4 4 5 7 3 7 3 8 4 4 12 0 10 8 9 12 18
9 9 9 9 9 9 10 10 11 11 10 4 2 2 4 4 8 8 14 13 11 21 12 7 10 12 4 3 2 2 4 5 9 23 5 8 9 8 8 11 12 22 19 20 17 14 16
Wind_Direction
42 45 42 39 34 32 29 32 39 43 42 43 35 25 17 8 6 354 343 332 326 332 335 335 326 324 334 330 252 214 165 208 303 214 221 65 74 122 203 232 275 216 265 222 242 255 254
46 47 43 40 39 37 30 23 14 11 8 10 17 7 0 354 345 338 328 320 318 325 330 328 324 321 359 277 260 152 154 180 244 157 5 137 186 188 277 261 177 243 232 258 250 237 263
38 40 42 51 44 41 38 32 23 13 4 356 347 341 336 332 324 316 308 302 302 308 319 320 320 339 10 240 325 162 154 241 208 160 344 279 136 121 325 285 276 282 270 310 240 221 246
37 33 31 30 34 39 40 37 32 24 14 1 351 343 337 331 324 316 309 302 295 287 274 169 15 106 250 279 337 134 166 306 311 231 192 267 221 206 187 300 0 234 56 271 277 177 249
32 31 30 30 28 27 27 28 27 25 20 14 5 353 340 331 324 319 314 308 297 290 236 220 111 91 272 314 259 233 162 241 296 321 276 292 79 206 11 104 355 341 238 220 308 201 159
32 29 28 28 27 25 25 23 22 19 15 10 3 354 345 334 330 328 318 295 301 317 123 170 51 25 290 254 240 181 172 202 62 39 6 45 47 136 36 111 225 207 228 249 231 255 206
32 27 24 23 21 18 17 17 15 11 8 3 358 352 347 343 337 339 347 37 20 358 35 203 216 221 310 291 197 149 148 116 64 63 187 319 114 221 205 208 174 193 213 240 249 237 183
31 30 25 21 19 17 14 12 9 5 2 359 355 350 343 340 332 326 317 82 176 187 307 259 235 277 272 354 318 247 118 138 136 204 182 9 248 255 191 237 254 265 254 254 285 263 196
29 28 25 23 19 17 14 10 7 3 359 355 351 346 341 336 321 7 43 155 91 111 303 293 208 184 221 147 233 262 139 146 183 211 188 181 232 113 191 235 222 243 242 255 251 317 246
26 23 21 20 17 15 12 8 4 359 355 350 346 341 340 333 74 321 357 13 25 99 49 283 291 335 112 127 243 215 184 150 208 242 212 234 266 255 228 214 194 250 213 239 259 242 265
29 26 22 18 14 11 7 3 359 355 350 345 339 336 338 4 251 55 327 348 86 56 351 57 348 300 32 149 317 291 205 108 219 215 132 241 261 245 240 236 191 241 215 211 215 211 0
24 27 23 17 12 8 4 1 357 353 349 343 336 337 338 50 55 264 306 21 52 42 273 60 61 8 17 320 304 343 91 43 224 253 221 247 202 220 214 225 206 267 190 19 65 104 242
25 23 21 17 12 7 4 2 358 353 348 342 334 326 285 325 238 311 340 48 31 130 336 15 44 339 267 268 275 201 180 189 220 299 270 314 232 236 211 249 197 156 96 287 286 172 248
23 19 17 13 9 4 1 359 358 356 348 342 334 360 167 223 289 346 56 50 168 352 353 8 336 315 219 23 274 10 346 280 249 216 320 269 296 185 202 204 198 205 190 207 216 216 262
21 18 16 12 9 4 358 356 356 356 351 345 341 353 34 339 355 59 69 74 218 43 329 326 331 358 327 27 25 15 330 249 309 182 216 300 259 310 297 254 172 221 213 238 253 265 265
19 19 18 16 9 2 359 358 356 356 354 348 65 50 14 323 345 55 74 218 105 88 290 340 44 12 3 329 341 1 279 357 347 50 359 290 300 253 289 319 293 202 181 284 321 259 253
23 18 17 14 8 2 360 359 356 353 353 345 43 56 293 338 51 44 96 252 326 21 28 352 347 284 328 24 349 276 265 6 28 358 351 333 242 287 326 232 279 290 271 235 242 209 258
18 18 18 18 13 9 3 1 360 355 348 33 64 58 321 357 54 39 55 326 324 357 13 341 329 316 352 347 269 246 242 163 34 19 20 349 297 284 287 279 258 245 267 357 275 282 275
15 11 14 14 13 7 5 0 358 0 7 22 70 300 332 49 79 22 329 316 313 23 341 1 324 35 32 350 328 335 345 1 9 357 338 333 289 304 300 319 27 22 333 306 311 264 260
8 10 8 12 11 9 6 3 359 357 3 73 69 30 346 39 38 96 359 292 311 1 130 354 285 69 8 329 225 293 304 315 339 304 315 303 242 255 271 283 286 285 292 288 260 263 284
358 9 6 11 12 8 9 8 5 358 355 76 25 63 167 336 25 68 283 287 300 336 334 13 351 84 30 282 296 263 317 315 299 286 284 302 273 278 277 281 284 284 277 278 277 258 246
359 4 4 7 15 11 16 16 15 1 1 73 82 43 4 1 356 31 356 254 265 241 354 298 246 359 334 291 279 290 295 295 264 284 275 255 275 277 277 276 273 276 278 273 261 270 267
355 2 4 6 13 17 13 15 20 17 25 75 338 16 103 309 55 59 247 252 269 32 284 239 324 323 306 289 278 285 276 271 263 269 275 269 261 273 274 276 282 275 255 263 260 265 268
347 355 358 2 7 15 17 20 17 36 57 104 200 85 81 287 205 224 252 267 291 301 265 289 296 291 253 316 299 281 262 251 253 260 252 256 272 242 270 285 253 289 305 281 269 273 303
335 341 345 350 360 12 14 18 17 18 79 82 126 100 120 245 234 273 273 278 307 296 292 281 284 270 282 299 304 300 300 306 276 235 261 204 232 279 276 283 279 279 343 345 323 304 85
320 325 333 343 352 1 5 8 1 1 19 91 225 136 150 295 237 235 277 269 294 288 285 253 285 297 294 291 307 302 297 288 276 301 347 85 228 207 290 282 277 278 318 15 335 286 333
305 315 318 328 332 339 349 346 349 355 336 105 251 187 250 266 259 233 243 212 223 280 282 290 290 297 342 268 272 267 262 217 241 247 293 292 299 247 265 275 277 270 237 294 335 282 299
283 293 305 314 321 330 330 330 336 332 322 102 229 189 186 247 267 246 263 260 267 230 266 297 315 283 280 209 231 243 240 243 281 262 272 264 292 281 286 236 275 95 336 298 314 305 298
280 285 295 297 304 309 318 328 320 315 313 338 246 208 185 222 260 283 260 244 221 254 267 244 246 275 242 266 267 273 290 275 273 283 275 254 201 255 198 250 275 287 292 296 291 277 296